Location: Buch
(50.1863°N, 11.0141°E)
Time: 19:27:53
(UTC+00:00)

Nadezhda 1 Rocket - Pass Details

Date: 18 January 2020
Orbit: 942 x 1005 km, 83.0° (Epoch: 16 February)

Event Time Altitude Azimuth Distance (km) Brightness Sun altitude
Rises 04:54:40 0° 196° (SSW) 3,607 6.9 -20.7°
Reaches altitude 10° 04:57:11 10° 199° (SSW) 2,661 6.2 -20.3°
Maximum altitude 05:03:13 67° 282° (WNW) 1,021 3.8 -19.3°
Drops below altitude 10° 05:09:17 10° 5° (N) 2,673 6.2 -18.4°
Sets 05:11:49 0° 9° (N) 3,625 7.0 -18.0°
